Time,TemperatureF,DewpointF,PressureIn,WindDirection,WindDirectionDegrees,WindSpeedMPH,WindSpeedGustMPH,Humidity,HourlyPrecipIn,Conditions,Clouds,dailyrainin,SolarRadiationWatts/m^2,SoftwareType,DateUTC
2013-10-23 00:23:00,29.0,29.0,-100.00,WNW,290,6.0,6.0,99,0.00,,,-99.99,0.000000,,2013-10-23 05:23:00,
2013-10-23 00:34:00,29.0,29.0,-100.00,WNW,290,6.0,6.0,99,0.00,,,-99.99,0.000000,,2013-10-23 05:34:00,
2013-10-23 00:43:00,29.0,29.0,-100.00,WNW,290,6.0,6.0,99,0.00,,,-99.99,0.000000,,2013-10-23 05:43:00,
2013-10-23 00:52:00,29.0,29.0,-100.00,WNW,290,6.0,6.0,99,0.00,,,-99.99,0.000000,,2013-10-23 05:52:00,
2013-10-23 01:22:00,29.0,29.0,-100.00,West,279,5.0,7.0,100,0.00,,,0.00,0.000000,,2013-10-23 06:22:00,
2013-10-23 01:32:00,29.0,29.0,-100.00,West,279,5.0,7.0,100,0.00,,,0.00,0.000000,,2013-10-23 06:32:00,
2013-10-23 01:42:00,29.0,29.0,-100.00,West,279,5.0,7.0,100,0.00,,,0.00,0.000000,,2013-10-23 06:42:00,
2013-10-23 01:52:00,29.0,29.0,-100.00,West,279,5.0,7.0,100,0.00,,,0.00,0.000000,,2013-10-23 06:52:00,
2013-10-23 02:22:00,29.0,29.0,-100.00,WNW,298,5.0,7.0,100,0.00,,,0.00,0.000000,,2013-10-23 07:22:00,
2013-10-23 02:32:00,29.0,29.0,-100.00,WNW,298,5.0,7.0,100,0.00,,,0.00,0.000000,,2013-10-23 07:32:00,
2013-10-23 02:42:00,29.0,29.0,-100.00,WNW,298,5.0,7.0,100,0.00,,,0.00,0.000000,,2013-10-23 07:42:00,
2013-10-23 02:52:00,29.0,29.0,-100.00,WNW,298,5.0,7.0,100,0.00,,,0.00,0.000000,,2013-10-23 07:52:00,
2013-10-23 03:22:00,30.0,30.0,-100.00,NW,305,6.0,9.0,100,0.00,,,0.00,0.000000,,2013-10-23 08:22:00,
2013-10-23 03:32:00,30.0,30.0,-100.00,NW,305,6.0,9.0,100,0.00,,,0.00,0.000000,,2013-10-23 08:32:00,
2013-10-23 03:42:00,30.0,30.0,-100.00,NW,305,6.0,9.0,100,0.00,,,0.00,0.000000,,2013-10-23 08:42:00,
2013-10-23 03:52:00,30.0,30.0,-100.00,NW,305,6.0,9.0,100,0.00,,,0.00,0.000000,,2013-10-23 08:52:00,
2013-10-23 04:22:00,30.0,30.0,-100.00,WNW,302,5.0,6.0,100,0.00,,,0.00,0.000000,,2013-10-23 09:22:00,
2013-10-23 04:33:00,30.0,30.0,-100.00,WNW,302,5.0,6.0,100,0.00,,,0.00,0.000000,,2013-10-23 09:33:00,
2013-10-23 04:43:00,30.0,30.0,-100.00,WNW,302,5.0,6.0,100,0.00,,,0.00,0.000000,,2013-10-23 09:43:00,
2013-10-23 04:53:00,30.0,30.0,-100.00,WNW,302,5.0,6.0,100,0.00,,,0.00,0.000000,,2013-10-23 09:53:00,
2013-10-23 05:23:00,30.0,30.0,-100.00,WNW,299,5.0,7.0,100,0.00,,,0.00,0.000000,,2013-10-23 10:23:00,
2013-10-23 05:32:00,30.0,30.0,-100.00,WNW,299,5.0,7.0,100,0.00,,,0.00,0.000000,,2013-10-23 10:32:00,
2013-10-23 05:43:00,30.0,30.0,-100.00,WNW,299,5.0,7.0,100,0.00,,,0.00,0.000000,,2013-10-23 10:43:00,
2013-10-23 05:53:00,30.0,30.0,-100.00,WNW,299,5.0,7.0,100,0.00,,,0.00,0.000000,,2013-10-23 10:53:00,
2013-10-23 06:22:00,30.0,30.0,-100.00,NW,315,4.0,6.0,100,0.00,,,0.00,0.000000,,2013-10-23 11:22:00,
2013-10-23 06:33:00,30.0,30.0,-100.00,NW,315,4.0,6.0,100,0.00,,,0.00,0.000000,,2013-10-23 11:33:00,
2013-10-23 06:42:00,30.0,30.0,-100.00,NW,315,4.0,6.0,100,0.00,,,0.00,0.000000,,2013-10-23 11:42:00,
2013-10-23 06:52:00,30.0,30.0,-100.00,NW,315,4.0,6.0,100,0.00,,,0.00,0.000000,,2013-10-23 11:52:00,
2013-10-23 07:22:00,29.0,29.0,-100.00,NE,39,7.0,9.0,100,0.00,,,0.00,0.000000,,2013-10-23 12:22:00,
2013-10-23 07:32:00,29.0,29.0,-100.00,NE,39,7.0,9.0,100,0.00,,,0.00,0.000000,,2013-10-23 12:32:00,
2013-10-23 07:42:00,29.0,29.0,-100.00,NE,39,7.0,9.0,100,0.00,,,0.00,0.000000,,2013-10-23 12:42:00,
2013-10-23 07:52:00,29.0,29.0,-100.00,NE,39,7.0,9.0,100,0.00,,,0.00,0.000000,,2013-10-23 12:52:00,
2013-10-23 08:22:00,29.0,26.0,-100.00,NNE,33,4.0,9.0,87,0.00,,,0.00,0.000000,,2013-10-23 13:22:00,
2013-10-23 08:32:00,29.0,26.0,-100.00,NNE,33,4.0,9.0,87,0.00,,,0.00,0.000000,,2013-10-23 13:32:00,
2013-10-23 08:42:00,29.0,26.0,-100.00,NNE,33,4.0,9.0,87,0.00,,,0.00,0.000000,,2013-10-23 13:42:00,
2013-10-23 08:52:00,29.0,26.0,-100.00,NNE,33,4.0,9.0,87,0.00,,,0.00,0.000000,,2013-10-23 13:52:00,
2013-10-23 09:22:00,30.0,24.0,-100.00,NNE,14,2.0,7.0,79,0.00,,,0.00,10.000000,,2013-10-23 14:22:00,
2013-10-23 09:32:00,30.0,24.0,-100.00,NNE,14,2.0,7.0,79,0.00,,,0.00,10.000000,,2013-10-23 14:32:00,
2013-10-23 09:42:00,30.0,24.0,-100.00,NNE,14,2.0,7.0,79,0.00,,,0.00,10.000000,,2013-10-23 14:42:00,
2013-10-23 09:52:00,30.0,24.0,-100.00,NNE,14,2.0,7.0,79,0.00,,,0.00,10.000000,,2013-10-23 14:52:00,
2013-10-23 10:22:00,30.0,23.0,-100.00,NNE,22,10.0,13.0,75,0.00,,,0.00,47.000000,,2013-10-23 15:22:00,
2013-10-23 10:33:00,30.0,23.0,-100.00,NNE,22,10.0,13.0,75,0.00,,,0.00,47.000000,,2013-10-23 15:33:00,
2013-10-23 10:43:00,30.0,23.0,-100.00,NNE,22,10.0,13.0,75,0.00,,,0.00,47.000000,,2013-10-23 15:43:00,
2013-10-23 10:53:00,30.0,23.0,-100.00,NNE,22,10.0,13.0,75,0.00,,,0.00,47.000000,,2013-10-23 15:53:00,
2013-10-23 11:23:00,31.0,25.0,-100.00,NNE,18,10.0,14.0,77,0.00,,,-99.99,89.000000,,2013-10-23 16:23:00,
2013-10-23 11:33:00,31.0,25.0,-100.00,NNE,18,10.0,14.0,77,0.00,,,-99.99,89.000000,,2013-10-23 16:33:00,
2013-10-23 11:43:00,31.0,25.0,-100.00,NNE,18,10.0,14.0,77,0.00,,,-99.99,89.000000,,2013-10-23 16:43:00,
2013-10-23 11:53:00,31.0,25.0,-100.00,NNE,18,10.0,14.0,77,0.00,,,-99.99,89.000000,,2013-10-23 16:53:00,
2013-10-23 12:23:00,32.0,24.0,-100.00,North,354,12.0,20.0,73,0.00,,,0.00,154.000000,,2013-10-23 17:23:00,
2013-10-23 12:34:00,32.0,24.0,-100.00,North,354,12.0,20.0,73,0.00,,,0.00,154.000000,,2013-10-23 17:34:00,
2013-10-23 12:44:00,32.0,24.0,-100.00,North,354,12.0,20.0,73,0.00,,,0.00,154.000000,,2013-10-23 17:44:00,
2013-10-23 12:52:00,32.0,24.0,-100.00,North,354,12.0,20.0,73,0.00,,,0.00,154.000000,,2013-10-23 17:52:00,
2013-10-23 14:22:00,36.0,20.0,-100.00,NNW,347,16.0,25.0,52,-99.99,,,-99.99,349.000000,,2013-10-23 19:22:00,
2013-10-23 14:32:00,36.0,20.0,-100.00,NNW,347,16.0,25.0,52,-99.99,,,-99.99,349.000000,,2013-10-23 19:32:00,
2013-10-23 14:42:00,36.0,20.0,-100.00,NNW,347,16.0,25.0,52,-99.99,,,-99.99,349.000000,,2013-10-23 19:42:00,
2013-10-23 14:53:00,36.0,20.0,-100.00,NNW,347,16.0,25.0,52,-99.99,,,-99.99,349.000000,,2013-10-23 19:53:00,
2013-10-23 15:22:00,37.0,19.0,-100.00,North,357,14.0,27.0,48,0.00,,,0.00,292.000000,,2013-10-23 20:22:00,
2013-10-23 15:33:00,37.0,19.0,-100.00,North,357,14.0,27.0,48,0.00,,,0.00,292.000000,,2013-10-23 20:33:00,
2013-10-23 15:42:00,37.0,19.0,-100.00,North,357,14.0,27.0,48,0.00,,,0.00,292.000000,,2013-10-23 20:42:00,
2013-10-23 15:52:00,37.0,19.0,-100.00,North,357,14.0,27.0,48,0.00,,,0.00,292.000000,,2013-10-23 20:52:00,
2013-10-23 16:22:00,36.0,18.0,-100.00,NNW,348,17.0,24.0,48,0.00,,,0.00,196.000000,,2013-10-23 21:22:00,
2013-10-23 16:34:00,36.0,18.0,-100.00,NNW,348,17.0,24.0,48,0.00,,,0.00,196.000000,,2013-10-23 21:34:00,
2013-10-23 16:43:00,36.0,18.0,-100.00,NNW,348,17.0,24.0,48,0.00,,,0.00,196.000000,,2013-10-23 21:43:00,
2013-10-23 16:54:00,36.0,18.0,-100.00,NNW,348,17.0,24.0,48,0.00,,,0.00,196.000000,,2013-10-23 21:54:00,
2013-10-23 17:24:00,36.0,22.0,-100.00,NNW,344,16.0,24.0,56,0.00,,,0.00,70.000000,,2013-10-23 22:24:00,
2013-10-23 17:33:00,36.0,22.0,-100.00,NNW,344,16.0,24.0,56,0.00,,,0.00,70.000000,,2013-10-23 22:33:00,
2013-10-23 17:43:00,36.0,22.0,-100.00,NNW,344,16.0,24.0,56,0.00,,,0.00,70.000000,,2013-10-23 22:43:00,
2013-10-23 17:54:00,36.0,22.0,-100.00,NNW,344,16.0,24.0,56,0.00,,,0.00,70.000000,,2013-10-23 22:54:00,
2013-10-23 18:22:00,35.0,25.0,-100.00,NNW,341,11.0,23.0,66,0.00,,,0.00,34.000000,,2013-10-23 23:22:00,
2013-10-23 18:34:00,35.0,25.0,-100.00,NNW,341,11.0,23.0,66,0.00,,,0.00,34.000000,,2013-10-23 23:34:00,
2013-10-23 18:42:00,35.0,25.0,-100.00,NNW,341,11.0,23.0,66,0.00,,,0.00,34.000000,,2013-10-23 23:42:00,
2013-10-23 18:52:00,35.0,25.0,-100.00,NNW,341,11.0,23.0,66,0.00,,,0.00,34.000000,,2013-10-23 23:52:00,
2013-10-23 19:22:00,34.0,27.0,-100.00,NNW,339,14.0,19.0,74,0.00,,,0.00,1.000000,,2013-10-24 00:22:00,
2013-10-23 19:32:00,34.0,27.0,-100.00,NNW,339,14.0,19.0,74,0.00,,,0.00,1.000000,,2013-10-24 00:32:00,
2013-10-23 19:42:00,34.0,27.0,-100.00,NNW,339,14.0,19.0,74,0.00,,,0.00,1.000000,,2013-10-24 00:42:00,
2013-10-23 19:52:00,34.0,27.0,-100.00,NNW,339,14.0,19.0,74,0.00,,,0.00,1.000000,,2013-10-24 00:52:00,
2013-10-23 20:22:00,33.0,28.0,-100.00,NNW,339,14.0,21.0,82,0.00,,,0.00,0.000000,,2013-10-24 01:22:00,
2013-10-23 20:32:00,33.0,28.0,-100.00,NNW,339,14.0,21.0,82,0.00,,,0.00,0.000000,,2013-10-24 01:32:00,
2013-10-23 20:42:00,33.0,28.0,-100.00,NNW,339,14.0,21.0,82,0.00,,,0.00,0.000000,,2013-10-24 01:42:00,
2013-10-23 20:52:00,33.0,28.0,-100.00,NNW,339,14.0,21.0,82,0.00,,,0.00,0.000000,,2013-10-24 01:52:00,
2013-10-23 21:22:00,29.0,29.0,-100.00,NNW,341,9.0,25.0,100,0.00,,,0.00,0.000000,,2013-10-24 02:22:00,
2013-10-23 21:32:00,29.0,29.0,-100.00,NNW,341,9.0,25.0,100,0.00,,,0.00,0.000000,,2013-10-24 02:32:00,
2013-10-23 21:42:00,29.0,29.0,-100.00,NNW,341,9.0,25.0,100,0.00,,,0.00,0.000000,,2013-10-24 02:42:00,
2013-10-23 21:52:00,29.0,29.0,-100.00,NNW,341,9.0,25.0,100,0.00,,,0.00,0.000000,,2013-10-24 02:52:00,
2013-10-23 22:22:00,31.0,31.0,-100.00,NW,310,9.0,14.0,100,0.00,,,0.00,0.000000,,2013-10-24 03:22:00,
2013-10-23 22:34:00,31.0,31.0,-100.00,NW,310,9.0,14.0,100,0.00,,,0.00,0.000000,,2013-10-24 03:34:00,
2013-10-23 22:44:00,31.0,31.0,-100.00,NW,310,9.0,14.0,100,0.00,,,0.00,0.000000,,2013-10-24 03:44:00,
2013-10-23 22:54:00,31.0,31.0,-100.00,NW,310,9.0,14.0,100,0.00,,,0.00,0.000000,,2013-10-24 03:54:00,
2013-10-23 23:24:00,31.0,31.0,-100.00,WNW,303,10.0,14.0,100,0.00,,,0.00,0.000000,,2013-10-24 04:24:00,
2013-10-23 23:35:00,31.0,31.0,-100.00,WNW,303,10.0,14.0,100,0.00,,,0.00,0.000000,,2013-10-24 04:35:00,
2013-10-23 23:44:00,31.0,31.0,-100.00,WNW,303,10.0,14.0,100,0.00,,,0.00,0.000000,,2013-10-24 04:44:00,
2013-10-23 23:54:00,31.0,31.0,-100.00,WNW,303,10.0,14.0,100,0.00,,,0.00,0.000000,,2013-10-24 04:54:00,